Change the Weather History Date:

Friday, October 21, 2011

  Actual Average (KMKC) Record (KMKC)
Temperature  
Mean Temperature 52 °F -  
Max Temperature 70 °F 64 °F 80 °F (1999)
Min Temperature 34 °F 46 °F 35 °F (2011)
Degree Days  
Heating Degree Days 14    
Growing Degree Days 2 (Base 50)    
Moisture  
Dew Point 30 °F    
Average Humidity 48    
Maximum Humidity 79    
Minimum Humidity 23    
Precipitation  
Precipitation 0.00 in - - ()
Sea Level Pressure  
Sea Level Pressure 30.12 in    
Wind  
Wind Speed 5 mph (SSW)    
Max Wind Speed 12 mph    
Max Gust Speed -    
Visibility 10 miles    
Events      
Averages and records for this station are not official NWS values.
T = Trace of Precipitation, MM = Missing Value Source: NWS Daily Summary

Daily Weather History Graph

Daily Weather History Graph

Search for Another Location

Airport or City:

Trip Planner

Search our weather history database for the weather conditions in past years. The results will help you decide how hot, cold, wet, or windy it might be!

Date:

Astronomy

Oct. 21, 2011 Rise Set
Actual Time 7:32 AM CDT 6:30 PM CDT
Civil Twilight 7:05 AM CDT 6:57 PM CDT
Nautical Twilight 6:34 AM CDT 7:28 PM CDT
Astronomical Twilight 6:03 AM CDT 7:59 PM CDT
Moon 1:26 AM CDT (10/21) 3:12 PM CDT (10/21)
Length of Visible Light 11h 52m
Length of Day
10h 58m
Waning Crescent, 33% of the Moon is Illuminated
Oct 21
Waning Crescent
Oct 26
New
Nov 2
First Quarter
Nov 10
Full
Nov 18
Last Quarter

Hourly Weather History & Observations

Time (CDT) Temp. Windchill Dew Point Humidity Pressure Visibility Wind Dir Wind Speed Gust Speed Precip Events Conditions
12:53 AM 39.9 °F 37.8 °F 30.0 °F 68% 30.13 in 10.0 mi SSW 3.5 mph - N/A   Clear
1:53 AM 39.0 °F - 28.9 °F 67% 30.12 in 10.0 mi Calm Calm - N/A   Clear
2:53 AM 37.0 °F 34.5 °F 28.9 °F 73% 30.14 in 10.0 mi SSW 3.5 mph - N/A   Clear
3:53 AM 35.1 °F 30.1 °F 28.0 °F 76% 30.14 in 10.0 mi SW 5.8 mph - N/A   Clear
4:53 AM 35.1 °F 32.2 °F 28.0 °F 76% 30.15 in 10.0 mi SW 3.5 mph - N/A   Clear
5:53 AM 36.0 °F - 28.0 °F 73% 30.16 in 10.0 mi Calm Calm - N/A   Clear
6:53 AM 34.0 °F 31.0 °F 28.0 °F 79% 30.17 in 10.0 mi SSW 3.5 mph - N/A   Clear
7:53 AM 36.0 °F - 28.0 °F 73% 30.18 in 10.0 mi Calm Calm - N/A   Clear
8:53 AM 41.0 °F 39.0 °F 30.9 °F 67% 30.21 in 10.0 mi SW 3.5 mph - N/A   Clear
10:53 AM 55.0 °F - 30.0 °F 38% 30.19 in 10.0 mi SSW 8.1 mph - N/A   Clear
11:53 AM 59.0 °F - 28.9 °F 32% 30.19 in 10.0 mi SSW 10.4 mph - N/A   Clear
12:53 PM 61.0 °F - 28.9 °F 30% 30.16 in 10.0 mi South 8.1 mph - N/A   Clear
1:53 PM 64.9 °F - 28.9 °F 26% 30.12 in 10.0 mi SSW 10.4 mph - N/A   Clear
2:53 PM 66.9 °F - 30.0 °F 25% 30.10 in 10.0 mi SW 11.5 mph - N/A   Clear
3:53 PM 69.1 °F - 30.0 °F 23% 30.08 in 10.0 mi WSW 9.2 mph - N/A   Clear
4:53 PM 69.1 °F - 30.9 °F 24% 30.07 in 10.0 mi SW 8.1 mph - N/A   Clear
5:53 PM 66.0 °F - 32.0 °F 28% 30.07 in 10.0 mi South 4.6 mph - N/A   Clear
6:53 PM 63.0 °F - 32.0 °F 31% 30.08 in 10.0 mi SSE 4.6 mph - N/A   Clear
7:53 PM 61.0 °F - 33.1 °F 35% 30.09 in 10.0 mi SSE 6.9 mph - N/A   Clear
8:53 PM 59.0 °F - 33.1 °F 38% 30.08 in 10.0 mi South 6.9 mph - N/A   Clear
9:53 PM 57.9 °F - 33.1 °F 39% 30.08 in 10.0 mi South 6.9 mph - N/A   Clear
10:53 PM 57.9 °F - 34.0 °F 41% 30.08 in 10.0 mi South 9.2 mph - N/A   Clear
11:53 PM 53.1 °F - 35.1 °F 50% 30.07 in 10.0 mi SSW 6.9 mph - N/A   Clear